DW8455 Weather Reports


Display with metric or nautical units.
time (UTC)temp
F
wind
direction
speed
MPH
gust
MPH
rain 1hr
in
rain 24hr
in
rain mn
in
humidity
%
barometer
mb
20260502195036 68 158 2.0 5.0 0.00 0.00 0.00 19 1023.7
20260502194016 68 0.0 1.0 0.00 0.00 0.00 22 1023.8
20260502193017 68 90 2.0 6.0 0.00 0.00 0.00 28 1024.4
20260502192016 66 0 1.0 4.0 0.00 0.00 0.00 22 1024.1
20260502191016 66 0.0 1.0 0.00 0.00 0.00 27 1024.3
20260502190016 67 45 3.0 7.0 0.00 0.00 0.00 23 1024.7
20260502185016 66 23 4.0 7.0 0.00 0.00 0.00 23 1024.9
20260502184016 65 315 2.0 5.0 0.00 0.00 0.00 25 1024.6
20260502183037 67 0 4.0 7.0 0.00 0.00 0.00 26 1025.5
20260502182016 66 338 3.0 4.0 0.00 0.00 0.00 30 1025.5
20260502181016 64 293 2.0 5.0 0.00 0.00 0.00 29 1025.2
20260502164016 55 315 3.0 6.0 0.00 0.00 0.00 38 1025.8
20260502163016 55 203 2.0 5.0 0.00 0.00 0.00 40 1026.5
20260502162037 54 203 2.0 5.0 0.00 0.00 0.00 40 1026.6
20260502161016 52 248 1.0 4.0 0.00 0.00 0.00 45 1026.5
20260502152017 48 293 1.0 3.0 0.00 0.00 0.00 52 1026.7
20260502151037 46 0.0 2.0 0.00 0.00 0.00 52 1026.4
20260502123016 34 135 1.0 3.0 0.00 0.00 0.00 66 1027.2
20260502122015 34 135 1.0 3.0 0.00 0.00 0.00 65 1027.1
20260502121016 35 0.0 2.0 0.00 0.00 0.00 64 1027.4
20260502115037 36 0.0 0.0 0.00 0.00 0.00 61 1028.0
20260502114016 36 135 1.0 3.0 0.00 0.00 0.00 61 1028.0
20260502113036 36 135 2.0 3.0 0.00 0.00 0.00 61 1027.7
20260502112016 37 135 4.0 5.0 0.00 0.00 0.00 60 1027.7
20260502111036 36 158 4.0 5.0 0.00 0.00 0.00 62 1027.8
20260502110016 36 158 4.0 5.0 0.00 0.00 0.00 63 1027.3
20260502105015 35 158 5.0 6.0 0.00 0.00 0.00 63 1027.3
20260502104016 35 180 2.0 5.0 0.00 0.00 0.00 63 1027.2
20260502103016 36 135 1.0 4.0 0.00 0.00 0.00 64 1027.2
20260502102016 36 68 1.0 2.0 0.00 0.00 0.00 62 1027.1
20260502101036 37 68 1.0 3.0 0.00 0.00 0.00 60 1027.4
20260502091018 39 68 2.0 4.0 0.00 0.00 0.00 57 1027.2
20260502070018 41 180 2.0 3.0 0.00 0.00 0.00 53 1026.7
20260502065017 42 180 1.0 2.0 0.00 0.00 0.00 52 1026.7
20260502064017 42 0.0 0.0 0.00 0.00 0.00 50 1026.9
20260502063017 43 180 3.0 5.0 0.00 0.00 0.00 50 1026.6
20260502062017 42 135 2.0 3.0 0.00 0.00 0.00 51 1026.2
20260502061017 43 135 2.0 3.0 0.00 0.00 0.00 49 1026.5
20260502060037 44 90 3.0 5.0 0.00 0.00 0.00 46 1026.2
20260502055017 44 45 3.0 4.0 0.00 0.00 0.00 47 1026.1
20260502054018 45 23 1.0 3.0 0.00 0.00 0.00 45 1026.2
20260502053017 44 45 3.0 4.0 0.00 0.00 0.00 46 1025.8
20260502052017 44 45 2.0 4.0 0.00 0.00 0.00 45 1025.8
20260502051017 45 203 1.0 2.0 0.00 0.00 0.00 44 1025.8
20260502050017 46 203 2.0 3.0 0.00 0.00 0.00 43 1025.4
20260502045017 46 158 2.0 6.0 0.00 0.00 0.00 42 1025.2
20260502044017 46 135 4.0 6.0 0.00 0.00 0.00 44 1025.2
20260502043017 47 180 8.0 10.0 0.00 0.00 0.00 42 1025.1
20260502042017 49 203 5.0 7.0 0.00 0.00 0.00 39 1025.4
20260502041017 50 180 7.0 10.0 0.00 0.00 0.00 38 1025.9
20260502040017 50 135 7.0 11.0 0.00 0.00 0.00 34 1025.0
20260502035017 49 158 5.0 7.0 0.00 0.00 0.00 37 1024.6
20260502034017 49 270 1.0 3.0 0.00 0.00 0.00 37 1024.5
20260502033017 50 270 2.0 5.0 0.00 0.00 0.00 36 1024.0
20260502032058 51 293 4.0 8.0 0.00 0.00 0.00 33 1024.2
20260502031017 51 90 9.0 11.0 0.00 0.00 0.00 35 1023.9
20260502030017 52 90 9.0 11.0 0.00 0.00 0.00 33 1023.8
20260502025017 53 90 8.0 11.0 0.00 0.00 0.00 32 1023.7
20260502024058 53 90 10.0 14.0 0.00 0.00 0.00 32 1023.8
20260502023038 54 90 10.0 14.0 0.00 0.00 0.00 30 1023.0
20260502022058 56 90 9.0 13.0 0.00 0.00 0.00 31 1023.4
20260502021016 58 90 7.0 9.0 0.00 0.00 0.00 29 1023.7
20260502020017 59 90 7.0 9.0 0.00 0.00 0.00 29 1023.3
20260502015017 61 90 7.0 10.0 0.00 0.00 0.00 27 1023.6
20260502014037 63 90 7.0 9.0 0.00 0.00 0.00 24 1023.6
20260502013017 64 90 6.0 9.0 0.00 0.00 0.00 25 1023.8
20260502012017 66 90 4.0 7.0 0.00 0.00 0.00 22 1024.2
20260502011016 66 90 6.0 8.0 0.00 0.00 0.00 21 1024.2
20260502010016 68 0 2.0 7.0 0.00 0.00 0.00 18 1024.2
20260502005017 68 23 4.0 5.0 0.00 0.00 0.00 15 1024.2
20260502004016 69 45 3.0 6.0 0.00 0.00 0.00 13 1024.6
20260502003017 68 90 1.0 6.0 0.00 0.00 0.00 18 1024.4
20260502002016 68 180 1.0 3.0 0.00 0.00 0.00 15 1024.1
20260502001016 67 158 3.0 5.0 0.00 0.00 0.00 16 1024.2
20260502000016 68 158 3.0 4.0 0.00 0.00 0.00 14 1025.0
20260501235016 68 90 2.0 6.0 0.00 0.00 0.00 14 1025.0
20260501234016 70 45 3.0 7.0 0.00 0.00 0.00 18 1025.6
20260501233037 68 45 2.0 5.0 0.00 0.00 0.00 13 1025.2
20260501232057 68 203 2.0 5.0 0.00 0.00 0.00 18 1025.4
20260501231017 68 158 3.0 5.0 0.00 0.00 0.00 18 1025.4
20260501230037 68 180 2.0 4.0 0.00 0.00 0.00 17 1025.8
20260501225016 68 180 3.0 6.0 0.00 0.00 0.00 19 1025.9
20260501224016 68 135 2.0 7.0 0.00 0.00 0.00 17 1026.1
20260501223016 68 0 4.0 10.0 0.00 0.00 0.00 18 1025.7
20260501222016 67 338 2.0 4.0 0.00 0.00 0.00 18 1025.9
20260501221017 67 180 4.0 6.0 0.00 0.00 0.00 17 1026.1
20260501220037 67 315 3.0 7.0 0.00 0.00 0.00 20 1026.3
20260501215016 67 158 3.0 5.0 0.00 0.00 0.00 21 1026.4
20260501214016 68 270 4.0 6.0 0.00 0.00 0.00 21 1026.5
20260501213016 66 270 3.0 5.0 0.00 0.00 0.00 17 1026.5
20260501212016 66 158 5.0 11.0 0.00 0.00 0.00 22 1026.7
20260501211016 66 135 5.0 8.0 0.00 0.00 0.00 22 1026.8
20260501210016 67 113 4.0 9.0 0.00 0.00 0.00 24 1027.3
20260501205017 66 68 4.0 10.0 0.00 0.00 0.00 24 1027.4
20260501204017 65 135 2.0 5.0 0.00 0.00 0.00 25 1027.2
20260501203016 65 180 6.0 10.0 0.00 0.00 0.00 26 1027.3
20260501202016 64 158 3.0 6.0 0.00 0.00 0.00 25 1027.4
20260501201016 65 225 3.0 6.0 0.00 0.00 0.00 25 1027.6
20260501200016 64 203 4.0 7.0 0.00 0.00 0.00 24 1027.7